Date String (YYYY-MM-DD hh:mm:ss) UTC,Instrument flags,Ambient pressure (hPa),Sample flow (lpm),Bypass flow (lpm),Sample temperature (°C),Ambient temperature (°C),ASC tube jacket temperature (°C),LED temperature (°C),Box temperature (°C),Sample RH (%),Span deviation,Mass concentration (μg/m³),Mass concentration (μg/m³),Mass concentration (μg/m³)
DateTimeUTC,F1_M11,P_M11,Q1_M11,Q2_M11,T1_M11,T2_M11,T3_M11,T4_M11,T5_M11,U1_M11,ZSPAN_M11,X0_M11,X2_M11,X1_M11
2022-06-14 02:00:00,,0812.1,5.00,0.00,29.1,26.9,00.0,37.8,30.8,11.1,0004.2,0029.19,0020.82,0019.35
2022-06-14 02:01:00,,0812.2,5.00,0.00,29.1,26.9,00.0,37.8,30.8,11.7,0004.2,0028.44,0020.82,0019.36
2022-06-14 02:02:00,,0812.1,4.99,0.00,29.0,27.1,00.0,37.8,30.8,12.1,0004.4,0028.74,0020.85,0019.36
2022-06-14 02:03:00,,0812.2,5.00,0.00,29.0,27.3,00.0,37.8,30.9,12.4,0004.3,0028.54,0020.82,0019.33
2022-06-14 02:04:00,,0812.1,5.01,0.00,29.0,27.5,00.0,37.8,31.0,12.4,0004.0,0028.29,0020.70,0019.26
2022-06-14 02:05:00,,0812.1,5.00,0.00,29.1,27.7,00.0,37.9,31.1,12.2,0003.9,0028.12,0020.68,0019.19
2022-06-14 02:06:00,,0812.1,5.00,0.00,29.1,27.9,00.0,37.9,31.1,12.0,0003.7,0028.43,0020.61,0019.12
2022-06-14 02:07:00,,0812.2,5.00,0.00,29.2,28.1,00.0,37.9,31.2,11.9,0003.4,0029.63,0020.61,0019.05
2022-06-14 02:08:00,,0812.2,5.00,0.00,29.2,28.3,00.0,37.9,31.3,11.8,0003.5,0030.66,0020.63,0018.98
2022-06-14 02:09:00,,0812.1,5.00,0.00,29.3,28.2,00.0,37.9,31.2,11.5,0003.4,0030.81,0020.52,0018.88
2022-06-14 02:10:00,,0812.2,5.00,0.00,29.2,27.4,00.0,37.9,31.0,11.4,0003.2,0031.09,0020.45,0018.77
2022-06-14 02:11:00,,0812.1,5.00,0.00,29.1,27.0,00.0,37.8,30.9,11.3,0003.4,0030.78,0020.33,0018.63
2022-06-14 02:12:00,,0812.2,4.99,0.00,29.1,26.9,00.0,37.8,30.9,11.4,0003.5,0030.25,0020.20,0018.50
2022-06-14 02:13:00,,0812.2,5.00,0.00,29.1,27.0,00.0,37.8,30.9,11.4,0003.6,0030.10,0020.10,0018.38
2022-06-14 02:14:00,,0812.1,5.00,0.00,29.1,27.2,00.0,37.8,30.9,11.3,0003.6,0030.41,0020.07,0018.32
2022-06-14 02:15:00,,0812.2,4.99,0.00,29.1,27.5,00.0,37.9,31.0,11.2,0003.8,0030.07,0020.02,0018.28
2022-06-14 02:16:00,,0812.1,4.99,0.00,29.1,27.7,00.0,37.9,31.1,11.3,0003.9,0029.86,0019.94,0018.23
2022-06-14 02:17:00,,0812.1,5.00,0.00,29.1,27.9,00.0,37.9,31.1,11.4,0003.7,0029.28,0019.85,0018.19
2022-06-14 02:18:00,,0812.1,5.00,0.00,29.2,28.1,00.0,37.9,31.2,11.5,0003.9,0028.33,0019.80,0018.16
2022-06-14 02:19:00,,0812.1,5.00,0.00,29.2,28.2,00.0,37.9,31.3,11.6,0004.0,0027.01,0019.67,0018.13
2022-06-14 02:20:00,,0812.1,5.00,0.00,29.3,28.4,00.0,38.0,31.3,11.8,0004.0,0026.43,0019.63,0018.14
2022-06-14 02:21:00,,0812.1,5.00,0.00,29.3,28.1,00.0,37.9,31.2,11.9,0004.6,0026.23,0019.61,0018.18
2022-06-14 02:22:00,,0812.2,4.99,0.00,29.2,27.3,00.0,37.9,31.0,12.1,0004.8,0025.71,0019.62,0018.24
2022-06-14 02:23:00,,0812.1,5.01,0.00,29.1,27.0,00.0,37.9,30.9,12.3,0004.7,0025.74,0019.70,0018.32
2022-06-14 02:24:00,,0812.1,4.99,0.00,29.1,27.0,00.0,37.9,30.9,12.3,0004.4,0025.53,0019.78,0018.37
2022-06-14 02:25:00,,0812.1,5.00,0.00,29.1,27.1,00.0,37.9,30.9,12.1,0004.5,0025.31,0019.85,0018.46
2022-06-14 02:26:00,,0812.1,5.00,0.00,29.1,27.3,00.0,37.9,30.9,12.2,0004.7,0024.92,0019.87,0018.54
2022-06-14 02:27:00,,0812.1,5.00,0.00,29.1,27.5,00.0,37.9,31.0,12.2,0004.7,0025.38,0019.99,0018.65
2022-06-14 02:28:00,,0812.1,5.01,0.00,29.1,27.7,00.0,37.9,31.1,12.1,0004.7,0025.94,0020.12,0018.73
2022-06-14 02:29:00,,0812.1,4.99,0.00,29.1,27.9,00.0,37.9,31.2,11.9,0004.8,0026.07,0020.17,0018.78
2022-06-14 02:30:00,,0812.1,4.98,0.00,29.2,28.1,00.0,37.9,31.2,11.9,0004.7,0026.24,0020.21,0018.81
2022-06-14 02:31:00,,0812.1,5.00,0.00,29.2,28.3,00.0,38.0,31.3,12.0,0004.7,0026.38,0020.27,0018.83
2022-06-14 02:32:00,,0812.2,5.01,0.00,29.3,28.4,00.0,38.0,31.3,11.9,0004.4,0026.49,0020.31,0018.83
2022-06-14 02:33:00,,0812.1,5.00,0.00,29.3,27.9,00.0,38.0,31.2,11.7,0004.1,0026.39,0020.22,0018.76
2022-06-14 02:34:00,,0812.1,5.02,0.00,29.2,27.1,00.0,37.9,30.9,11.3,0004.4,0026.32,0020.07,0018.62
2022-06-14 02:35:00,,0812.2,4.99,0.00,29.1,26.9,00.0,37.9,30.9,11.1,0004.3,0026.49,0019.93,0018.45
2022-06-14 02:36:00,,0812.1,5.00,0.00,29.1,27.0,00.0,37.9,30.9,11.2,0004.3,0026.61,0019.73,0018.25
2022-06-14 02:37:00,,0812.1,5.00,0.00,29.1,27.2,00.0,37.9,30.9,11.2,0004.2,0026.99,0019.56,0018.05
2022-06-14 02:38:00,,0812.2,5.01,0.00,29.1,27.4,00.0,37.9,30.9,11.3,0004.1,0026.96,0019.45,0017.86
2022-06-14 02:39:00,,0812.2,5.01,0.00,29.1,27.6,00.0,37.9,31.0,11.5,0004.2,0026.98,0019.29,0017.71
2022-06-14 02:40:00,,0812.1,4.99,0.00,29.1,27.8,00.0,37.9,31.1,11.8,0004.4,0026.70,0019.11,0017.56
2022-06-14 02:41:00,,0812.1,5.00,0.00,29.2,28.0,00.0,37.9,31.1,12.1,0004.3,0026.28,0018.95,0017.44
2022-06-14 02:42:00,,0812.1,5.00,0.00,29.2,28.1,00.0,37.9,31.2,12.1,0004.3,0026.15,0018.73,0017.29
2022-06-14 02:43:00,,0812.2,5.00,0.00,29.2,28.3,00.0,38.0,31.3,12.0,0004.5,0025.92,0018.61,0017.16
2022-06-14 02:44:00,,0812.2,5.00,0.00,29.3,28.3,00.0,38.0,31.3,12.0,0004.7,0026.04,0018.61,0017.08
2022-06-14 02:45:00,,0812.2,5.01,0.00,29.3,27.6,00.0,37.9,31.1,12.2,0004.4,0026.24,0018.60,0017.06
2022-06-14 02:46:00,,0812.2,4.99,0.00,29.2,26.9,00.0,37.9,30.8,12.8,0004.6,0025.94,0018.63,0017.13
2022-06-14 02:47:00,,0812.2,5.00,0.00,29.1,26.9,00.0,37.9,30.8,13.3,0004.8,0025.55,0018.71,0017.24
2022-06-14 02:48:00,,0812.2,5.01,0.00,29.1,27.0,00.0,37.9,30.9,13.7,0005.0,0025.71,0018.84,0017.36
2022-06-14 02:49:00,,0812.2,5.00,0.00,29.0,27.1,00.0,37.9,30.9,13.8,0005.0,0026.16,0018.92,0017.46
2022-06-14 02:50:00,,0812.2,5.00,0.00,29.0,27.3,00.0,37.9,31.0,13.7,0004.9,0025.81,0019.06,0017.55
2022-06-14 02:51:00,,0812.2,5.00,0.00,29.1,27.5,00.0,37.9,31.0,13.6,0004.7,0026.08,0019.16,0017.64
2022-06-14 02:52:00,,0812.3,5.01,0.00,29.1,27.8,00.0,37.9,31.1,13.5,0004.6,0026.90,0019.30,0017.71
2022-06-14 02:53:00,,0812.3,5.01,0.00,29.1,28.0,00.0,37.9,31.1,13.5,0004.3,0027.42,0019.45,0017.79
2022-06-14 02:54:00,,0812.2,4.99,0.00,29.2,28.1,00.0,37.9,31.2,13.6,0004.2,0027.43,0019.46,0017.85
2022-06-14 02:55:00,,0812.3,4.99,0.00,29.2,28.3,00.0,38.0,31.3,13.0,0004.1,0027.33,0019.44,0017.88
2022-06-14 02:56:00,,0812.3,5.01,0.00,29.3,28.4,00.0,38.0,31.3,12.3,0003.9,0027.40,0019.42,0017.81
2022-06-14 02:57:00,,0812.3,5.00,0.00,29.3,27.9,00.0,38.0,31.2,12.3,0004.1,0027.73,0019.45,0017.74
2022-06-14 02:58:00,,0812.3,5.00,0.00,29.2,27.1,00.0,37.9,30.9,12.7,0003.8,0027.63,0019.42,0017.66
2022-06-14 02:59:00,,0812.3,5.00,0.00,29.1,26.9,00.0,37.9,30.9,12.8,0003.9,0027.04,0019.32,0017.58
